Montgomery, NY

6:05 AM EST on February 21, 2017 (GMT -0500)
Orange County

Weather History for KMGJ - February, 2013

Change the Weather History Date:

Saturday, February 16, 2013

  Actual Average (KSWF) Record (KSWF)
Temperature  
Mean Temperature 31 °F -  
Max Temperature 34 °F 36 °F 55 °F (2016)
Min Temperature 28 °F 20 °F -4 °F (2015)
Degree Days  
Heating Degree Days 34    
Moisture  
Dew Point 26 °F    
Average Humidity 79    
Maximum Humidity 93    
Minimum Humidity 51    
Precipitation  
Precipitation 0.07 in - - ()
Sea Level Pressure  
Sea Level Pressure 29.92 in    
Wind  
Wind Speed 5 mph (NNE)    
Max Wind Speed 10 mph    
Max Gust Speed -    
Visibility 7 miles    
Events Snow    
Averages and records for this station are not official NWS values.
T = Trace of Precipitation, MM = Missing Value Source: NWS Daily Summary

Daily Weather History Graph

Daily Weather History Graph

Search for Another Location

Airport or City:

Trip Planner

Search our weather history database for the weather conditions in past years. The results will help you decide how hot, cold, wet, or windy it might be!

Date:

Astronomy

Feb. 16, 2013 Rise Set
Actual Time 6:50 AM EST 5:32 PM EST
Civil Twilight 6:22 AM EST 6:00 PM EST
Nautical Twilight 5:49 AM EST 6:33 PM EST
Astronomical Twilight 5:17 AM EST 7:05 PM EST
Moon 9:56 AM EST (2/16) No Moon Set
Length of Visible Light 11h 38m
Length of Day
10h 41m
Waxing Crescent, 39% of the Moon is Illuminated
Feb 16
Waxing Crescent
Feb 17
First Quarter
Feb 25
Full
Mar 4
Last Quarter
Mar 11
New

Hourly Weather History & Observations

Time (EST) Temp. Windchill Dew Point Humidity Pressure Visibility Wind Dir Wind Speed Gust Speed Precip Events Conditions
12:01 AM 33.8 °F 30.8 °F 30.2 °F 87% 29.96 in 1.2 mi NNE 3.5 mph - 0.01 in Snow Light Snow
12:20 AM 33.8 °F - 32.0 °F 93% 29.97 in 1.2 mi Calm Calm - 0.03 in Snow Light Snow
12:54 AM 33.1 °F 26.9 °F 30.9 °F 92% 29.98 in 1.2 mi NNE 6.9 mph - 0.05 in Snow Light Snow
1:13 AM 33.8 °F 29.6 °F 30.2 °F 87% 29.97 in 1.8 mi NE 4.6 mph - 0.00 in Snow Light Snow
1:20 AM 33.8 °F 29.6 °F 30.2 °F 87% 29.97 in 2.5 mi NNE 4.6 mph - 0.00 in Snow Light Snow
1:35 AM 33.8 °F 28.6 °F 30.2 °F 87% 29.96 in 3.0 mi NE 5.8 mph - 0.00 in Snow Light Snow
1:54 AM 33.1 °F 28.7 °F 30.9 °F 92% 29.96 in 3.0 mi NE 4.6 mph - 0.00 in Snow Light Snow
2:24 AM 33.8 °F 30.8 °F 30.2 °F 87% 29.95 in 5.0 mi NNE 3.5 mph - 0.01 in Snow Light Snow
2:54 AM 33.1 °F 28.7 °F 30.0 °F 89% 29.96 in 3.0 mi NE 4.6 mph - 0.01 in Snow Light Snow
3:36 AM 33.8 °F 29.6 °F 30.2 °F 87% 29.94 in 1.8 mi NNE 4.6 mph - 0.00 in Snow Light Snow
3:54 AM 32.0 °F 26.4 °F 30.0 °F 92% 29.94 in 2.0 mi NNE 5.8 mph - 0.00 in Snow Light Snow
4:00 AM 32.0 °F 26.4 °F 30.2 °F 93% 29.93 in 1.0 mi NNE 5.8 mph - 0.01 in Snow Light Snow
4:06 AM 32.0 °F 25.6 °F 30.2 °F 93% 29.93 in 0.8 mi NE 6.9 mph - 0.01 in Snow Light Snow
4:12 AM 32.0 °F 24.8 °F 28.4 °F 87% 29.93 in 1.2 mi NE 8.1 mph - 0.01 in Snow Light Snow
4:27 AM 32.0 °F 26.4 °F 28.4 °F 87% 29.94 in 2.5 mi NE 5.8 mph - 0.01 in Snow Light Snow
4:34 AM 32.0 °F 25.6 °F 28.4 °F 87% 29.94 in 3.0 mi NE 6.9 mph - 0.01 in Snow Light Snow
4:54 AM 32.0 °F 26.4 °F 28.9 °F 88% 29.94 in 9.0 mi NE 5.8 mph - 0.01 in   Overcast
5:05 AM 32.0 °F 28.7 °F 28.4 °F 87% 29.94 in 10.0 mi Variable 3.5 mph - N/A   Overcast
5:23 AM 30.2 °F 25.4 °F 28.4 °F 93% 29.94 in 10.0 mi ENE 4.6 mph - N/A   Overcast
5:54 AM 32.0 °F 28.7 °F 28.0 °F 85% 29.96 in 10.0 mi North 3.5 mph - N/A   Overcast
6:34 AM 30.2 °F 24.3 °F 28.4 °F 93% 29.96 in 10.0 mi NNE 5.8 mph - N/A   Overcast
7:54 AM 30.9 °F - 28.0 °F 89% 29.96 in 10.0 mi Calm Calm - N/A   Overcast
8:38 AM 30.2 °F 26.7 °F 26.6 °F 86% 29.96 in 10.0 mi NNE 3.5 mph - N/A   Overcast
8:49 AM 30.2 °F 24.3 °F 24.8 °F 80% 29.96 in 10.0 mi NNE 5.8 mph - N/A   Overcast
8:54 AM 30.9 °F 25.2 °F 25.0 °F 79% 29.97 in 10.0 mi NNE 5.8 mph - N/A   Overcast
9:20 AM 30.2 °F 26.7 °F 26.6 °F 86% 29.96 in 10.0 mi ENE 3.5 mph - N/A   Overcast
9:54 AM 30.9 °F 23.5 °F 26.1 °F 82% 29.96 in 10.0 mi North 8.1 mph - N/A   Overcast
10:16 AM 30.2 °F 23.4 °F 24.8 °F 80% 29.95 in 10.0 mi North 6.9 mph - N/A   Overcast
10:54 AM 30.9 °F 25.2 °F 24.1 °F 76% 29.96 in 10.0 mi NNE 5.8 mph - N/A   Mostly Cloudy
11:29 AM 30.2 °F 24.3 °F 24.8 °F 80% 29.93 in 10.0 mi NNE 5.8 mph - N/A   Mostly Cloudy
11:54 AM 32.0 °F 26.4 °F 25.0 °F 75% 29.93 in 10.0 mi NNE 5.8 mph - N/A   Mostly Cloudy
12:54 PM 34.0 °F 28.8 °F 25.0 °F 70% 29.91 in 10.0 mi NNE 5.8 mph - N/A   Partly Cloudy
1:54 PM 34.0 °F 29.8 °F 24.1 °F 67% 29.89 in 10.0 mi NE 4.6 mph - N/A   Partly Cloudy
2:54 PM 34.0 °F 29.8 °F 21.9 °F 61% 29.86 in 10.0 mi NE 4.6 mph - N/A   Mostly Cloudy
3:54 PM 33.1 °F 26.9 °F 21.0 °F 61% 29.87 in 10.0 mi North 6.9 mph - N/A   Overcast
4:54 PM 32.0 °F 24.8 °F 19.9 °F 61% 29.87 in 10.0 mi NNE 8.1 mph - N/A   Overcast
5:54 PM 30.9 °F 24.3 °F 19.0 °F 61% 29.86 in 10.0 mi NNE 6.9 mph - N/A   Overcast
6:54 PM 30.0 °F 23.2 °F 18.0 °F 61% 29.86 in 10.0 mi North 6.9 mph - N/A   Overcast
7:54 PM 30.0 °F 23.2 °F 18.0 °F 61% 29.85 in 10.0 mi North 6.9 mph - N/A   Overcast
8:54 PM 28.9 °F 22.8 °F 15.1 °F 56% 29.84 in 10.0 mi NNW 5.8 mph - N/A   Overcast
9:54 PM 28.9 °F 21.9 °F 12.9 °F 51% 29.83 in 10.0 mi NW 6.9 mph - N/A   Overcast
10:54 PM 28.0 °F 20.8 °F 12.0 °F 51% 29.80 in 10.0 mi North 6.9 mph - N/A   Overcast
11:54 PM 28.0 °F 18.6 °F 12.0 °F 51% 29.77 in 10.0 mi North 10.4 mph - N/A   Overcast